Time,TemperatureF,DewpointF,PressureIn,WindDirection,WindDirectionDegrees,WindSpeedMPH,WindSpeedGustMPH,Humidity,HourlyPrecipIn,Conditions,Clouds,dailyrainin,SolarRadiationWatts/m^2,SoftwareType,DateUTC
2013-04-04 00:00:00,43.7,31.1,30.29,WNW,287,0.0,0.0,61,0.00,,---,0.00,0.00,VWS V14.01,2013-04-04 04:00:00,
2013-04-04 00:05:00,43.6,31.0,30.29,WNW,287,0.0,0.0,61,0.00,,---,0.00,0.00,VWS V14.01,2013-04-04 04:05:00,
2013-04-04 00:10:00,43.6,31.9,30.29,WNW,287,0.0,0.0,63,0.00,,---,0.00,0.00,VWS V14.01,2013-04-04 04:10:00,
2013-04-04 00:15:00,43.5,31.4,30.29,WNW,287,0.0,0.0,62,0.00,,---,0.00,0.00,VWS V14.01,2013-04-04 04:15:00,
2013-04-04 00:20:00,43.4,32.4,30.29,WNW,287,0.0,0.0,65,0.00,,---,0.00,0.00,VWS V14.01,2013-04-04 04:20:00,
2013-04-04 00:25:00,43.3,32.0,30.29,WNW,287,0.0,0.0,64,0.00,,---,0.00,0.00,VWS V14.01,2013-04-04 04:25:00,
2013-04-04 00:30:00,43.2,31.9,30.29,WNW,287,0.0,0.0,64,0.00,,---,0.00,0.00,VWS V14.01,2013-04-04 04:30:00,
2013-04-04 00:35:00,43.1,31.8,30.29,WNW,287,0.0,1.0,64,0.00,,---,0.00,0.00,VWS V14.01,2013-04-04 04:35:00,
2013-04-04 00:40:00,42.9,29.2,30.28,NNE,17,0.0,2.0,58,0.00,,---,0.00,0.00,VWS V14.01,2013-04-04 04:40:00,
2013-04-04 00:45:00,43.0,28.4,30.29,NNE,17,0.0,2.0,56,0.00,,---,0.00,0.00,VWS V14.01,2013-04-04 04:45:00,
2013-04-04 00:50:00,43.3,24.9,30.29,NE,39,2.0,2.0,48,0.00,,---,0.00,0.00,VWS V14.01,2013-04-04 04:50:00,
2013-04-04 00:55:00,44.1,23.6,30.29,NE,56,1.0,6.0,44,0.00,,---,0.00,0.00,VWS V14.01,2013-04-04 04:55:00,
2013-04-04 01:00:00,44.7,23.6,30.29,NNE,17,1.0,4.0,43,0.00,,---,0.00,0.00,VWS V14.01,2013-04-04 05:00:00,
2013-04-04 01:05:00,45.2,24.0,30.29,NE,56,0.0,4.0,43,0.00,,---,0.00,0.00,VWS V14.01,2013-04-04 05:05:00,
2013-04-04 01:10:00,45.6,23.9,30.29,ESE,112,2.0,7.0,42,0.00,,---,0.00,0.00,VWS V14.01,2013-04-04 05:10:00,
2013-04-04 01:15:00,45.9,24.1,30.30,East,96,3.0,7.0,42,0.00,,---,0.00,0.00,VWS V14.01,2013-04-04 05:15:00,
2013-04-04 01:20:00,46.1,24.9,30.30,ESE,105,3.0,8.0,43,0.00,,---,0.00,0.00,VWS V14.01,2013-04-04 05:20:00,
2013-04-04 01:25:00,46.1,24.9,30.30,East,84,7.0,8.0,43,0.00,,---,0.00,0.00,VWS V14.01,2013-04-04 05:25:00,
2013-04-04 01:30:00,46.0,24.8,30.30,NW,309,2.0,6.0,43,0.00,,---,0.00,0.00,VWS V14.01,2013-04-04 05:30:00,
2013-04-04 01:35:00,45.8,24.6,30.31,ENE,76,1.0,7.0,43,0.00,,---,0.00,0.00,VWS V14.01,2013-04-04 05:35:00,
2013-04-04 01:40:00,45.6,24.4,30.30,NNE,22,4.0,9.0,43,0.00,,---,0.00,0.00,VWS V14.01,2013-04-04 05:40:00,
2013-04-04 01:45:00,45.4,24.2,30.30,ENE,67,0.0,9.0,43,0.00,,---,0.00,0.00,VWS V14.01,2013-04-04 05:45:00,
2013-04-04 01:50:00,45.3,24.7,30.31,East,96,1.0,9.0,44,0.00,,---,0.00,0.00,VWS V14.01,2013-04-04 05:50:00,
2013-04-04 01:55:00,45.1,23.4,30.31,East,79,1.0,9.0,42,0.00,,---,0.00,0.00,VWS V14.01,2013-04-04 05:55:00,
2013-04-04 02:00:00,44.9,23.2,30.31,East,82,2.0,4.0,42,0.00,,---,0.00,0.00,VWS V14.01,2013-04-04 06:00:00,
2013-04-04 02:05:00,44.8,22.5,30.31,ENE,74,4.0,5.0,41,0.00,,---,0.00,0.00,VWS V14.01,2013-04-04 06:05:00,
2013-04-04 02:10:00,44.7,22.5,30.31,East,82,4.0,5.0,41,0.00,,---,0.00,0.00,VWS V14.01,2013-04-04 06:10:00,
2013-04-04 02:15:00,44.7,22.5,30.31,NNE,24,0.0,6.0,41,0.00,,---,0.00,0.00,VWS V14.01,2013-04-04 06:15:00,
2013-04-04 02:20:00,44.6,21.8,30.31,East,94,0.0,8.0,40,0.00,,---,0.00,0.00,VWS V14.01,2013-04-04 06:20:00,
2013-04-04 02:25:00,44.5,21.7,30.31,East,79,5.0,8.0,40,0.00,,---,0.00,0.00,VWS V14.01,2013-04-04 06:25:00,
2013-04-04 02:30:00,44.3,22.1,30.31,East,85,0.0,1.0,41,0.00,,---,0.00,0.00,VWS V14.01,2013-04-04 06:30:00,
2013-04-04 02:35:00,44.2,21.4,30.30,NE,37,5.0,9.0,40,0.00,,---,0.00,0.00,VWS V14.01,2013-04-04 06:35:00,
2013-04-04 02:40:00,44.1,21.9,30.30,SW,217,0.0,9.0,41,0.00,,---,0.00,0.00,VWS V14.01,2013-04-04 06:40:00,
2013-04-04 02:45:00,44.0,21.2,30.29,East,98,0.0,9.0,40,0.00,,---,0.00,0.00,VWS V14.01,2013-04-04 06:45:00,
2013-04-04 02:50:00,43.8,21.1,30.29,East,96,6.0,9.0,40,0.00,,---,0.00,0.00,VWS V14.01,2013-04-04 06:50:00,
2013-04-04 02:55:00,43.7,21.6,30.29,ENE,58,1.0,9.0,41,0.00,,---,0.00,0.00,VWS V14.01,2013-04-04 06:55:00,
2013-04-04 03:00:00,43.7,22.1,30.30,ESE,102,1.0,6.0,42,0.00,,---,0.00,0.00,VWS V14.01,2013-04-04 07:00:00,
2013-04-04 03:05:00,43.6,22.0,30.30,ENE,68,1.0,6.0,42,0.00,,---,0.00,0.00,VWS V14.01,2013-04-04 07:05:00,
2013-04-04 03:10:00,43.5,22.5,30.30,East,79,0.0,6.0,43,0.00,,---,0.00,0.00,VWS V14.01,2013-04-04 07:10:00,
2013-04-04 03:15:00,43.5,23.6,30.31,ENE,59,3.0,6.0,45,0.00,,---,0.00,0.00,VWS V14.01,2013-04-04 07:15:00,
2013-04-04 03:20:00,43.4,23.0,30.31,NE,41,1.0,6.0,44,0.00,,---,0.00,0.00,VWS V14.01,2013-04-04 07:20:00,
2013-04-04 03:25:00,43.4,23.5,30.31,NE,35,2.0,6.0,45,0.00,,---,0.00,0.00,VWS V14.01,2013-04-04 07:25:00,
2013-04-04 03:30:00,43.4,24.0,30.31,ENE,72,0.0,4.0,46,0.00,,---,0.00,0.00,VWS V14.01,2013-04-04 07:30:00,
2013-04-04 03:35:00,43.4,25.0,30.31,East,81,1.0,7.0,48,0.00,,---,0.00,0.00,VWS V14.01,2013-04-04 07:35:00,
2013-04-04 03:40:00,43.4,25.0,30.31,ENE,75,2.0,7.0,48,0.00,,---,0.00,0.00,VWS V14.01,2013-04-04 07:40:00,
2013-04-04 03:45:00,43.3,25.4,30.31,ENE,75,0.0,7.0,49,0.00,,---,0.00,0.00,VWS V14.01,2013-04-04 07:45:00,
2013-04-04 03:50:00,43.2,25.4,30.30,East,93,6.0,9.0,49,0.00,,---,0.00,0.00,VWS V14.01,2013-04-04 07:50:00,
2013-04-04 03:55:00,43.2,25.8,30.31,North,5,3.0,9.0,50,0.00,,---,0.00,0.00,VWS V14.01,2013-04-04 07:55:00,
2013-04-04 04:00:00,43.1,26.2,30.31,NNE,26,1.0,6.0,51,0.00,,---,0.00,0.00,VWS V14.01,2013-04-04 08:00:00,
2013-04-04 04:05:00,43.1,26.2,30.31,East,98,4.0,6.0,51,0.00,,---,0.00,0.00,VWS V14.01,2013-04-04 08:05:00,
2013-04-04 04:10:00,42.9,26.5,30.31,East,84,2.0,6.0,52,0.00,,---,0.00,0.00,VWS V14.01,2013-04-04 08:10:00,
2013-04-04 04:15:00,42.8,26.9,30.31,ENE,71,0.0,6.0,53,0.00,,---,0.00,0.00,VWS V14.01,2013-04-04 08:15:00,
2013-04-04 04:20:00,42.7,26.8,30.31,ENE,67,1.0,6.0,53,0.00,,---,0.00,0.00,VWS V14.01,2013-04-04 08:20:00,
2013-04-04 04:25:00,42.7,27.2,30.32,East,91,2.0,6.0,54,0.00,,---,0.00,0.00,VWS V14.01,2013-04-04 08:25:00,
2013-04-04 04:30:00,42.6,27.1,30.31,East,96,0.0,5.0,54,0.00,,---,0.00,0.00,VWS V14.01,2013-04-04 08:30:00,
2013-04-04 04:35:00,42.5,27.0,30.32,ESE,107,1.0,5.0,54,0.00,,---,0.00,0.00,VWS V14.01,2013-04-04 08:35:00,
2013-04-04 04:40:00,42.5,27.0,30.32,East,84,2.0,5.0,54,0.00,,---,0.00,0.00,VWS V14.01,2013-04-04 08:40:00,
2013-04-04 04:45:00,42.4,27.0,30.32,NE,47,1.0,5.0,54,0.00,,---,0.00,0.00,VWS V14.01,2013-04-04 08:45:00,
2013-04-04 04:50:00,42.4,27.8,30.32,NE,47,0.0,5.0,56,0.00,,---,0.00,0.00,VWS V14.01,2013-04-04 08:50:00,
2013-04-04 04:55:00,42.3,27.7,30.32,NE,53,0.0,5.0,56,0.00,,---,0.00,0.00,VWS V14.01,2013-04-04 08:55:00,
2013-04-04 05:00:00,42.2,27.6,30.32,NE,46,0.0,2.0,56,0.00,,---,0.00,0.00,VWS V14.01,2013-04-04 09:00:00,
2013-04-04 05:05:00,42.2,28.1,30.32,ENE,78,1.0,2.0,57,0.00,,---,0.00,0.00,VWS V14.01,2013-04-04 09:05:00,
2013-04-04 05:10:00,42.1,28.0,30.32,East,87,0.0,2.0,57,0.00,,---,0.00,0.00,VWS V14.01,2013-04-04 09:10:00,
2013-04-04 05:15:00,42.0,27.9,30.32,NE,45,1.0,4.0,57,0.00,,---,0.00,0.00,VWS V14.01,2013-04-04 09:15:00,
2013-04-04 05:20:00,41.9,27.8,30.32,NE,38,1.0,4.0,57,0.00,,---,0.00,0.00,VWS V14.01,2013-04-04 09:20:00,
2013-04-04 05:25:00,41.9,27.8,30.32,NE,56,0.0,4.0,57,0.00,,---,0.00,0.00,VWS V14.01,2013-04-04 09:25:00,
2013-04-04 05:30:00,41.8,28.1,30.32,East,79,0.0,2.0,58,0.00,,---,0.00,0.00,VWS V14.01,2013-04-04 09:30:00,
2013-04-04 05:35:00,41.7,28.0,30.32,ENE,78,2.0,2.0,58,0.00,,---,0.00,0.00,VWS V14.01,2013-04-04 09:35:00,
2013-04-04 05:40:00,41.7,28.4,30.33,ENE,57,0.0,2.0,59,0.00,,---,0.00,0.00,VWS V14.01,2013-04-04 09:40:00,
2013-04-04 05:45:00,41.5,27.8,30.33,ENE,76,0.0,6.0,58,0.00,,---,0.00,0.00,VWS V14.01,2013-04-04 09:45:00,
2013-04-04 05:50:00,41.4,28.2,30.33,ESE,108,1.0,6.0,59,0.00,,---,0.00,0.00,VWS V14.01,2013-04-04 09:50:00,
2013-04-04 05:55:00,41.3,27.6,30.33,East,81,1.0,6.0,58,0.00,,---,0.00,0.00,VWS V14.01,2013-04-04 09:55:00,
2013-04-04 06:00:00,41.2,27.6,30.32,East,89,1.0,5.0,58,0.00,,---,0.00,0.00,VWS V14.01,2013-04-04 10:00:00,
2013-04-04 06:05:00,41.1,27.9,30.32,East,84,1.0,5.0,59,0.00,,---,0.00,0.00,VWS V14.01,2013-04-04 10:05:00,
2013-04-04 06:10:00,41.1,27.9,30.33,ENE,62,3.0,5.0,59,0.00,,---,0.00,0.00,VWS V14.01,2013-04-04 10:10:00,
2013-04-04 06:15:00,40.9,27.7,30.33,ESE,107,1.0,5.0,59,0.00,,---,0.00,0.00,VWS V14.01,2013-04-04 10:15:00,
2013-04-04 06:20:00,40.9,27.7,30.33,ENE,73,3.0,5.0,59,0.00,,---,0.00,0.00,VWS V14.01,2013-04-04 10:20:00,
2013-04-04 06:25:00,40.8,27.6,30.33,ENE,63,0.0,5.0,59,0.00,,---,0.00,0.00,VWS V14.01,2013-04-04 10:25:00,
2013-04-04 06:30:00,40.7,27.9,30.33,East,87,0.0,2.0,60,0.00,,---,0.00,0.00,VWS V14.01,2013-04-04 10:30:00,
2013-04-04 06:35:00,40.6,27.4,30.34,ENE,63,2.0,4.0,59,0.00,,---,0.00,0.00,VWS V14.01,2013-04-04 10:35:00,
2013-04-04 06:40:00,40.5,27.7,30.33,East,81,2.0,7.0,60,0.00,,---,0.00,0.00,VWS V14.01,2013-04-04 10:40:00,
2013-04-04 06:45:00,40.4,27.6,30.33,East,93,0.0,7.0,60,0.00,,---,0.00,0.00,VWS V14.01,2013-04-04 10:45:00,
2013-04-04 06:50:00,40.3,27.5,30.33,East,94,0.0,7.0,60,0.00,,---,0.00,0.00,VWS V14.01,2013-04-04 10:50:00,
2013-04-04 06:55:00,40.2,27.4,30.33,ENE,67,4.0,7.0,60,0.00,,---,0.00,0.00,VWS V14.01,2013-04-04 10:55:00,
2013-04-04 07:00:00,40.2,27.4,30.33,NNE,18,2.0,2.0,60,0.00,,---,0.00,5.00,VWS V14.01,2013-04-04 11:00:00,
2013-04-04 07:05:00,40.2,27.4,30.34,ESE,103,1.0,4.0,60,0.00,,---,0.00,7.00,VWS V14.01,2013-04-04 11:05:00,
2013-04-04 07:10:00,40.2,27.4,30.34,East,93,2.0,4.0,60,0.00,,---,0.00,12.00,VWS V14.01,2013-04-04 11:10:00,
2013-04-04 07:15:00,40.2,27.4,30.34,East,90,6.0,9.0,60,0.00,,---,0.00,14.00,VWS V14.01,2013-04-04 11:15:00,
2013-04-04 07:20:00,40.2,26.6,30.35,East,79,0.0,9.0,58,0.00,,---,0.00,16.00,VWS V14.01,2013-04-04 11:20:00,
2013-04-04 07:25:00,40.2,27.0,30.35,East,84,1.0,9.0,59,0.00,,---,0.00,21.00,VWS V14.01,2013-04-04 11:25:00,
2013-04-04 07:30:00,40.1,27.4,30.35,ENE,75,0.0,3.0,60,0.00,,---,0.00,28.00,VWS V14.01,2013-04-04 11:30:00,
2013-04-04 07:35:00,40.1,27.4,30.36,ENE,65,6.0,6.0,60,0.00,,---,0.00,37.00,VWS V14.01,2013-04-04 11:35:00,
2013-04-04 07:40:00,40.1,27.4,30.36,ENE,66,4.0,6.0,60,0.00,,---,0.00,53.00,VWS V14.01,2013-04-04 11:40:00,
2013-04-04 07:45:00,40.1,27.4,30.36,NE,50,4.0,6.0,60,0.00,,---,0.00,62.00,VWS V14.01,2013-04-04 11:45:00,
2013-04-04 07:50:00,40.1,27.8,30.36,NE,49,0.0,6.0,61,0.00,,---,0.00,65.00,VWS V14.01,2013-04-04 11:50:00,
2013-04-04 07:55:00,40.2,27.8,30.36,East,94,1.0,7.0,61,0.00,,---,0.00,72.00,VWS V14.01,2013-04-04 11:55:00,
2013-04-04 08:00:00,40.2,27.8,30.37,East,80,2.0,2.0,61,0.00,,---,0.00,86.00,VWS V14.01,2013-04-04 12:00:00,
2013-04-04 08:05:00,40.2,27.8,30.37,East,81,3.0,7.0,61,0.00,,---,0.00,95.00,VWS V14.01,2013-04-04 12:05:00,
2013-04-04 08:10:00,40.3,27.1,30.37,East,98,1.0,7.0,59,0.00,,---,0.00,93.00,VWS V14.01,2013-04-04 12:10:00,
2013-04-04 08:15:00,40.3,27.1,30.38,SE,128,4.0,7.0,59,0.00,,---,0.00,104.00,VWS V14.01,2013-04-04 12:15:00,
2013-04-04 08:20:00,40.3,27.1,30.38,SE,128,4.0,7.0,59,0.00,,---,0.00,104.00,VWS V14.01,2013-04-04 12:20:00,
2013-04-04 08:25:00,40.3,27.1,30.38,SE,128,4.0,7.0,59,0.00,,---,0.00,104.00,VWS V14.01,2013-04-04 12:25:00,
2013-04-04 08:30:00,40.3,27.1,30.38,SE,128,4.0,4.0,59,0.00,,---,0.00,104.00,VWS V14.01,2013-04-04 12:30:00,
2013-04-04 08:35:00,40.3,27.1,30.38,SE,128,4.0,4.0,59,0.00,,---,0.00,104.00,VWS V14.01,2013-04-04 12:35:00,
2013-04-04 08:40:00,40.9,26.4,30.37,East,98,1.0,4.0,56,0.00,,---,0.00,139.00,VWS V14.01,2013-04-04 12:40:00,
2013-04-04 08:45:00,41.1,26.6,30.37,NE,54,2.0,5.0,56,0.00,,---,0.00,139.00,VWS V14.01,2013-04-04 12:45:00,
2013-04-04 08:50:00,41.3,26.8,30.37,SSE,149,6.0,8.0,56,0.00,,---,0.00,244.00,VWS V14.01,2013-04-04 12:50:00,
2013-04-04 08:55:00,41.4,26.0,30.36,NE,34,1.0,9.0,54,0.00,,---,0.00,139.00,VWS V14.01,2013-04-04 12:55:00,
2013-04-04 09:00:00,41.5,26.1,30.36,East,80,1.0,4.0,54,0.00,,---,0.00,151.00,VWS V14.01,2013-04-04 13:00:00,
2013-04-04 09:05:00,41.6,25.8,30.36,ENE,74,1.0,9.0,53,0.00,,---,0.00,218.00,VWS V14.01,2013-04-04 13:05:00,
2013-04-04 09:10:00,41.9,26.0,30.36,SSW,205,0.0,9.0,53,0.00,,---,0.00,151.00,VWS V14.01,2013-04-04 13:10:00,
2013-04-04 09:15:00,41.9,26.0,30.36,East,86,1.0,9.0,53,0.00,,---,0.00,141.00,VWS V14.01,2013-04-04 13:15:00,
2013-04-04 09:20:00,42.0,25.7,30.37,South,190,1.0,9.0,52,0.00,,---,0.00,302.00,VWS V14.01,2013-04-04 13:20:00,
2013-04-04 09:25:00,42.4,26.0,30.36,ENE,63,3.0,9.0,52,0.00,,---,0.00,355.00,VWS V14.01,2013-04-04 13:25:00,
2013-04-04 09:30:00,42.7,25.4,30.36,NE,42,5.0,5.0,50,0.00,,---,0.00,206.00,VWS V14.01,2013-04-04 13:30:00,
2013-04-04 09:35:00,42.9,25.6,30.35,East,81,5.0,7.0,50,0.00,,---,0.00,214.00,VWS V14.01,2013-04-04 13:35:00,
2013-04-04 09:40:00,42.9,26.0,30.36,East,96,3.0,7.0,51,0.00,,---,0.00,211.00,VWS V14.01,2013-04-04 13:40:00,
2013-04-04 09:45:00,42.9,25.1,30.36,SE,125,1.0,9.0,49,0.00,,---,0.00,216.00,VWS V14.01,2013-04-04 13:45:00,
2013-04-04 09:50:00,43.0,25.2,30.35,NE,55,4.0,9.0,49,0.00,,---,0.00,251.00,VWS V14.01,2013-04-04 13:50:00,
2013-04-04 09:55:00,43.1,25.7,30.34,NE,53,4.0,9.0,50,0.00,,---,0.00,292.00,VWS V14.01,2013-04-04 13:55:00,
2013-04-04 10:00:00,43.4,25.0,30.34,East,90,4.0,8.0,48,0.00,,---,0.00,248.00,VWS V14.01,2013-04-04 14:00:00,
2013-04-04 10:05:00,43.5,25.6,30.34,East,100,4.0,8.0,49,0.00,,---,0.00,243.00,VWS V14.01,2013-04-04 14:05:00,
2013-04-04 10:10:00,43.5,25.1,30.34,East,87,2.0,8.0,48,0.00,,---,0.00,227.00,VWS V14.01,2013-04-04 14:10:00,